Regional Weather Roundup
Issued by NWS Mt. Holly, NJ

Home | Current Version | Previous Version | Text Only | Print | Product List | Glossary On
Versions: 1 2 3 4 5 6 7 8 9 10 11 12 13 14 15 16 17 18 19 20 21 22 23 24 25 26 27 28 29 30 31 32 33 34 35 36 37 38 39 40 41 42 43 44 45 46 47 48 49 50
175
ASUS41 KPHI 241512
RWRPHI

REGIONAL WEATHER ROUNDUP
NATIONAL WEATHER SERVICE MOUNT HOLLY NJ
1000 AM EST TUE JAN 24 2017

NOTE:  "FAIR" INDICATES FEW OR NO CLOUDS BELOW 12,000 FEET WITH NO
SIGNIFICANT WEATHER AND/OR OBSTRUCTIONS TO VISIBILITY.

 * = STATION DOES NOT REPORT PRECIPITATION (E.G. RAIN, SNOW, ETC.)
        OR FOG.

NJZ015>026-241600-
SOUTHERN NEW JERSEY

CITY           SKY/WX    TMP DP  RH WIND       PRES   REMARKS
POMONA         LGT SNOW  37  35  92 NW18G28   29.36R VSB 1   WCI  27
WILDWOOD*      LGT RAIN  38  36  92 NW14G20   29.39R FOG     WCI  30
MILLVILLE      LGT RAIN  38  37  97 N14G23    29.40R WCI  30
MOUNT HOLLY    MIX PCPN  37  35  92 NW14      29.40R FOG     WCI  28
TRENTON        LGT SNOW  37  35  92 N15       29.39S FOG     WCI  28

$$
NJZ001>014-241600-
NORTHERN NEW JERSEY

CITY           SKY/WX    TMP DP  RH WIND       PRES   REMARKS
SUSSEX         CLOUDY    35  33  92 N8        29.43S FOG     WCI  29
ANDOVER*         N/A     34  32  92 N8        29.43R WCI  27
MORRISTOWN     CLOUDY    36  34  93 N14G20    29.40S FOG     WCI  27
NEWARK         DRIZZLE   38  35  89 N20       29.37S WCI  28
TETERBORO      CLOUDY    36  34  93 N5G26     29.38S FOG     WCI  32
CALDWELL       CLOUDY    36  33  89 VRB7      29.40R WCI  30
SOMERVILLE     CLOUDY    37  32  82 N10       29.39R WCI  30
ALLAIRE*       LGT RAIN  36  35  96 NW17      29.35R FOG     WCI  26
TOMS RIVER*    LGT RAIN  37  36  96 NW13      29.36R FOG     WCI  29

$$
PAZ043-044-047-054-055-060>062-066>071-241600-
EASTERN PENNSYLVANIA

CITY           SKY/WX    TMP DP  RH WIND       PRES   REMARKS
PHILADELPHIA   LGT RAIN  39  35  86 N15G25    29.43S WCI  31
NORTH PHILA    LGT RAIN  39  36  89 N18G28    29.42S FOG     WCI  30
BLUE BELL*     CLOUDY    36  36 100 N8        29.42S WCI  29
DOYLESTOWN     LGT RAIN  38  36  92 N14G21    29.41S WCI  30
QUAKERTOWN*    CLOUDY    37  36  93 N10       29.45R WCI  30
PERKASIE*      MIX PCPN  36  36 100 N13G23    29.44S WCI  27
POTTSTOWN      CLOUDY    38  35  89 NW13G20   29.46S WCI  30
LANCASTER      CLOUDY    40  35  83 NW13      29.49R WCI  32
COATESVILLE    CLOUDY    37  36  93 N16       29.46S WCI  28
READING        CLOUDY    40  36  86 N14       29.47R WCI  32
ALLENTOWN      CLOUDY    40  33  76 NW12      29.46R WCI  33
MOUNT POCONO   CLOUDY    31  28  89 N13       29.41R WCI  21
HAZLETON       LGT SNOW  32  32 100 NW9       29.49S WCI  24
LEHIGHTON        N/A     37  32  81 N10G17    29.49R WCI  30
WILKES BARRE   CLOUDY    36  31  82 N10       29.49R WCI  28

$$
DEZALL-MDZ008-012-015-019-020-241600-
DELAWARE AND EASTERN MARYLAND

CITY           SKY/WX    TMP DP  RH WIND       PRES   REMARKS
WILMINGTON     CLOUDY    41  36  82 N18G24    29.44F
DOVER          CLOUDY    40  40 100 NW15      29.42R WCI  32
GEORGETOWN     CLOUDY    40  37  89 NW9G17    29.42R WCI  34
EASTON         CLOUDY    41  36  81 N14G24    29.50R
ABERDEEN       CLOUDY    41  36  81 N8G18     29.48S
PATUXENT       PTSUNNY   42  37  82 NW21      29.49R
OCEAN CITY     CLOUDY    40  37  89 N15G23    29.41R WCI  32
WALLOPS ISLAND CLOUDY    40  37  89 NW15G23   29.44R WCI  32
CAMBRIDGE      CLOUDY    39  36  87 NW15G21   29.46R WCI  31
SALISBURY      CLOUDY    40  37  89 NW12G22   29.43R WCI  33

$$
PAZ001-021-NYZ056-072-MDZ011-DCZ001-241600-
OTHER NEARBY LOCATIONS

CITY           SKY/WX    TMP DP  RH WIND       PRES   REMARKS
HARRISBURG     CLOUDY    39  35  86 N13       29.52R WCI  31
STATE COLLEGE  LGT SNOW  34  32  93 CALM      29.56S
WILLIAMSPORT   LGT SNOW  34  32  92 W10       29.55S VSB 1   WCI  26
BINGHAMTON     LGT SNOW  30  29  96 N12       29.51R FOG     WCI  20
NEW YORK CITY  MIX PCPN  36  35  96 NE10G21   29.38S FOG     WCI  28
BALTIMORE      PTSUNNY   42  36  79 NW14G23   29.50R
WASHINGTON DC  MOSUNNY   43  37  79 N16G24    29.53R

$$




USA.gov is the U.S. government's official web portal to all federal, state and local government web resources and services.